Location: Arbon
(43.0005°N, 0.7472°E)
Time: 02:57:21
(UTC+00:00)

Cosmos 1553 Rocket - Pass Details

Date: 07 August 2020
Orbit: 942 x 1007 km, 82.9° (Epoch: 27 September)

Event Time Altitude Azimuth Distance (km) Brightness Sun altitude
Rises 04:04:56 0° 195° (SSW) 3,594 6.5 -8.9°
Reaches altitude 10° 04:07:25 10° 198° (SSW) 2,652 5.8 -8.5°
Maximum altitude 04:13:25 65° 280° (W) 1,032 4.0 -7.5°
Drops below altitude 10° 04:19:30 10° 2° (N) 2,680 6.8 -6.6°
Sets 04:22:02 0° 6° (N) 3,636 7.5 -6.2°
